Santa Fe, NM

2:02 PM MDT on May 23, 2017 (GMT -0600)
Santa Fe Municipal

Weather History for KSAF - March, 2014

Change the Weather History Date:

Sunday, March 23, 2014

  Actual Average Record
Temperature  
Mean Temperature 42 °F -  
Max Temperature 59 °F 0 °F 73 °F (1998)
Min Temperature 28 °F - 19 °F (2013)
Degree Days  
Heating Degree Days 22    
Moisture  
Dew Point 20 °F    
Average Humidity 43    
Maximum Humidity 69    
Minimum Humidity 21    
Precipitation  
Precipitation 0.00 in - - ()
Sea Level Pressure  
Sea Level Pressure 30.08 in    
Wind  
Wind Speed 13 mph (South)    
Max Wind Speed 23 mph    
Max Gust Speed 30 mph    
Visibility 10 miles    
Events      
Averages and records for this station are not official NWS values.
T = Trace of Precipitation, MM = Missing Value Source: NWS Daily Summary

Daily Weather History Graph

Daily Weather History Graph

Search for Another Location

Airport or City:

Trip Planner

Search our weather history database for the weather conditions in past years. The results will help you decide how hot, cold, wet, or windy it might be!

Date:

Astronomy

Mar. 23, 2014 Rise Set
Actual Time 7:03 AM MDT 7:18 PM MDT
Civil Twilight 6:38 AM MDT 7:44 PM MDT
Nautical Twilight 6:08 AM MDT 8:14 PM MDT
Astronomical Twilight 5:38 AM MDT 8:44 PM MDT
Moon 1:28 AM MDT 11:57 AM MDT
Length of Visible Light 13h 06m
Length of Day
12h 15m
Waning Gibbous, 54% of the Moon is Illuminated
Mar 23
Waning Gibbous
Mar 23
Last Quarter
Mar 30
New
Apr 7
First Quarter
Apr 15
Full

Hourly Weather History & Observations

Time (MDT) Temp. Windchill Dew Point Humidity Pressure Visibility Wind Dir Wind Speed Gust Speed Precip Events Conditions
12:53 AM 46.0 °F 43.1 °F 17.1 °F 31% 29.96 in 10.0 mi North 5.8 mph - N/A   Overcast
1:53 AM 42.1 °F 33.9 °F 21.0 °F 43% 30.00 in 10.0 mi SSE 17.3 mph - N/A   Overcast
2:53 AM 39.0 °F 29.0 °F 21.0 °F 49% 30.02 in 10.0 mi South 20.7 mph 27.6 mph N/A   Overcast
3:53 AM 36.0 °F 24.4 °F 21.0 °F 55% 30.06 in 10.0 mi SSE 23.0 mph 29.9 mph N/A   Overcast
4:53 AM 34.0 °F 23.0 °F 21.0 °F 59% 30.09 in 10.0 mi SSE 18.4 mph - N/A   Scattered Clouds
5:53 AM 32.0 °F 21.6 °F 21.9 °F 66% 30.13 in 10.0 mi SSE 15.0 mph - N/A   Overcast
6:53 AM 30.0 °F 20.0 °F 21.0 °F 69% 30.17 in 10.0 mi SSE 12.7 mph - N/A   Overcast
7:53 AM 28.9 °F 17.7 °F 19.9 °F 69% 30.23 in 10.0 mi SE 15.0 mph - N/A   Clear
8:53 AM 33.1 °F 22.6 °F 21.0 °F 61% 30.24 in 10.0 mi SSE 16.1 mph - N/A   Mostly Cloudy
9:53 AM 35.1 °F 24.5 °F 21.0 °F 57% 30.21 in 10.0 mi SE 18.4 mph - N/A   Mostly Cloudy
10:53 AM 39.0 °F 29.9 °F 21.0 °F 49% 30.18 in 10.0 mi SSE 17.3 mph - N/A   Clear
11:53 AM 42.1 °F 34.5 °F 21.0 °F 43% 30.17 in 10.0 mi South 15.0 mph - N/A   Clear
12:53 PM 46.9 °F - 21.0 °F 36% 30.10 in 10.0 mi South 15.0 mph 28.8 mph N/A   Clear
1:53 PM 51.1 °F - 21.9 °F 32% 30.05 in 10.0 mi SSW 12.7 mph 17.3 mph N/A   Clear
2:53 PM 55.9 °F - 21.0 °F 26% 30.01 in 10.0 mi WSW 18.4 mph 25.3 mph N/A   Clear
3:53 PM 57.0 °F - 19.0 °F 23% 29.99 in 10.0 mi WSW 13.8 mph 24.2 mph N/A   Clear
4:53 PM 57.0 °F - 18.0 °F 22% 29.98 in 10.0 mi SW 11.5 mph 20.7 mph N/A   Scattered Clouds
5:53 PM 57.0 °F - 17.1 °F 21% 29.98 in 10.0 mi WSW 16.1 mph 27.6 mph N/A   Partly Cloudy
6:53 PM 53.1 °F - 19.9 °F 27% 30.01 in 10.0 mi SW 9.2 mph - N/A   Clear
7:53 PM 50.0 °F - 21.0 °F 32% 30.04 in 10.0 mi SSW 4.6 mph - N/A   Clear
8:53 PM 43.0 °F 39.5 °F 19.0 °F 38% 30.08 in 10.0 mi North 5.8 mph - N/A   Clear
9:53 PM 44.1 °F 42.5 °F 19.9 °F 38% 30.08 in 10.0 mi NW 3.5 mph - N/A   Clear
10:53 PM 41.0 °F 38.0 °F 19.0 °F 41% 30.08 in 10.0 mi North 4.6 mph - N/A   Clear
11:53 PM 36.0 °F 31.1 °F 18.0 °F 48% 30.09 in 10.0 mi NNE 5.8 mph - N/A   Clear